Theta_e
293 288 286 291 291 292 286 286 285 289 292 290 290 292 295 298 295 293 296 297 296 295 301 301 298 299 298 298 296 295 293 293 293 292 290 290 291 289 287 288 289 287 287 287
289 286 292 292 291 290 289 288 287 291 293 290 291 291 294 296 298 298 296 297 298 300 301 300 295 296 297 297 295 294 293 292 293 294 293 292 292 287 290 289 288 288 287 286
289 290 294 292 289 289 288 287 288 288 290 288 287 287 288 292 296 298 299 299 299 300 299 301 294 294 297 297 294 293 293 292 294 293 292 287 287 286 285 286 286 287 287 286
289 294 292 290 289 290 287 291 291 289 284 283 287 282 285 289 291 293 296 297 297 298 299 301 294 293 295 297 295 294 293 293 293 292 291 290 289 288 289 289 286 284 286 285
288 289 288 288 290 291 290 290 288 285 283 281 283 281 285 290 289 292 296 296 297 299 299 298 293 295 296 296 294 293 293 292 293 291 291 290 289 289 285 285 284 285 284 284
290 290 290 290 290 290 289 287 286 283 282 279 283 283 283 284 289 290 294 297 297 298 300 294 294 294 293 293 292 292 291 291 291 290 290 290 289 285 284 284 285 284 284 283
284 287 290 292 288 288 288 284 278 275 275 278 284 281 287 288 290 292 294 295 297 298 298 291 291 292 291 290 290 291 290 289 290 289 290 290 289 287 286 285 286 284 284 283
281 283 287 289 290 287 286 286 279 271 276 281 280 278 287 291 294 294 294 296 296 296 291 293 293 292 292 292 291 291 290 290 289 289 290 290 289 288 288 286 287 286 285 285
282 284 287 289 289 291 284 282 289 279 269 273 283 284 290 289 290 291 292 293 291 290 292 292 291 292 292 292 291 291 289 290 289 289 290 289 289 288 287 286 286 286 285 284
288 283 287 285 286 287 287 288 280 279 271 270 278 279 285 288 290 290 289 289 292 292 291 291 291 291 290 291 291 290 290 290 289 289 289 289 288 288 287 285 284 284 283 282
289 287 287 284 284 285 283 282 283 284 282 279 278 282 293 292 288 289 291 290 290 289 290 291 292 292 291 289 289 290 289 289 289 288 289 289 287 287 287 284 284 283 282 281
292 288 284 286 292 288 286 286 286 282 280 282 283 283 295 295 295 289 289 289 289 290 290 291 292 292 290 290 289 290 290 289 289 289 288 288 286 285 285 283 283 282 281 281
292 286 282 283 286 289 285 288 287 288 286 282 279 282 295 295 294 292 289 294 295 294 291 292 293 292 292 291 291 291 290 290 290 287 286 285 284 284 284 284 283 281 281 280
296 289 285 282 285 286 283 283 285 285 281 282 282 284 289 292 292 294 295 296 297 295 295 295 292 292 292 291 292 290 290 290 288 286 285 285 285 284 284 283 281 281 280 279
292 285 288 287 288 289 289 288 288 286 287 283 284 285 288 291 293 295 296 296 295 294 294 294 292 294 292 291 291 290 290 289 287 286 285 285 285 284 283 281 280 280 279 278
289 284 286 284 287 286 284 287 287 287 287 287 288 287 294 295 296 296 296 297 296 297 298 297 294 292 290 292 292 288 288 288 286 286 285 285 283 282 281 280 279 278 278 277
284 283 283 280 284 284 281 285 286 287 288 288 284 289 294 293 293 294 295 295 294 291 292 293 292 292 293 295 294 292 289 288 285 286 285 283 282 280 279 279 278 277 277 276
282 281 281 278 281 273 284 290 290 287 289 290 289 288 288 288 289 292 291 289 289 289 289 289 289 291 293 292 288 287 282 283 284 284 284 282 281 279 278 277 277 277 276 274
285 283 279 276 276 280 284 283 282 282 282 282 282 284 285 285 287 288 290 289 287 287 289 289 287 287 287 287 286 284 279 280 280 281 282 280 279 277 276 276 275 275 274 274
284 286 280 278 274 272 273 280 280 282 278 279 283 279 280 281 275 281 285 286 286 287 288 287 287 286 286 284 280 280 278 277 277 278 278 277 278 276 276 275 274 274 275 274
266 267 269 271 271 276 276 280 281 275 272 280 282 281 280 277 280 283 284 285 286 286 286 288 287 285 283 280 278 278 277 276 276 276 275 275 276 276 276 275 275 274 273 273
269 268 268 265 261 265 277 277 270 275 279 283 280 279 279 279 280 280 281 281 281 283 284 286 286 285 285 280 277 278 276 275 274 273 273 274 274 274 273 273 272 272 272 271
266 272 269 269 268 276 279 280 280 282 278 278 279 279 279 277 276 278 279 280 281 281 283 284 284 284 285 282 278 279 278 274 273 274 273 273 273 273 272 271 271 270 271 270
271 274 268 268 273 275 277 278 281 280 278 278 277 275 275 274 276 276 276 276 276 277 278 280 281 282 283 286 281 280 278 276 275 274 273 273 272 272 272 272 272 271 271 270
271 273 270 270 274 275 276 278 277 276 277 274 274 274 274 274 273 273 273 273 274 275 276 278 278 278 280 282 283 282 278 277 275 275 273 272 272 272 271 271 271 272 272 272
275 273 270 269 275 275 275 278 275 272 271 271 271 271 272 272 271 271 271 272 272 271 273 271 271 272 273 276 280 284 278 276 275 273 271 271 270 270 270 270 270 275 274 276
Wind_Speed
4 5 12 21 17 15 3 7 9 10 5 5 11 17 20 20 9 12 17 18 17 16 25 12 12 15 13 14 16 19 20 18 15 10 10 8 11 8 5 7 10 9 8 8
2 10 19 6 5 9 12 19 22 18 20 7 17 23 17 14 23 19 17 21 22 22 20 17 11 12 17 21 21 19 21 20 17 14 12 7 9 4 7 7 9 10 10 9
16 11 10 10 8 11 13 14 18 18 7 6 11 19 14 12 19 23 22 22 23 24 24 22 10 13 15 18 20 21 23 22 20 16 9 4 5 4 3 6 7 8 10 9
9 12 15 8 9 14 16 14 15 13 3 11 1 27 7 7 16 16 20 21 18 21 22 21 11 10 15 20 18 19 20 20 18 18 15 17 11 11 9 9 5 6 9 9
11 5 6 11 23 9 14 5 8 4 5 5 7 10 7 13 12 17 23 19 20 21 19 20 12 13 15 15 18 18 19 18 17 18 17 14 12 9 4 5 9 9 8 9
13 3 5 9 4 8 2 2 3 4 2 12 13 11 3 8 13 8 13 20 18 20 20 9 11 9 9 9 13 15 18 17 16 17 17 19 19 10 7 8 10 9 7 8
2 7 7 6 5 3 5 5 5 5 1 15 9 10 22 6 7 11 15 17 18 15 17 8 8 9 10 14 15 15 18 18 18 19 19 20 18 15 16 13 11 12 9 8
1 16 8 5 12 10 11 12 9 10 12 18 6 11 15 12 11 12 12 16 17 16 6 10 12 12 12 14 16 16 17 17 18 19 20 16 16 11 11 13 11 11 11 12
6 17 2 5 4 10 3 7 17 2 3 3 11 14 13 5 8 9 12 13 14 13 9 9 7 8 10 13 16 18 17 16 17 16 14 15 15 16 15 13 11 10 9 8
5 16 5 3 2 4 9 4 2 1 4 8 8 8 18 14 10 9 11 14 15 12 9 9 8 8 7 8 11 10 12 17 15 15 15 14 15 15 12 10 14 12 10 11
4 5 22 2 8 8 1 4 5 3 6 15 18 11 31 25 7 10 13 11 10 10 9 8 8 6 5 5 8 11 12 13 12 15 17 16 14 14 13 12 12 13 11 13
5 4 10 26 19 5 4 10 12 12 14 12 18 18 31 26 23 6 9 10 8 6 9 8 7 4 5 7 8 13 14 14 17 15 14 16 12 13 15 13 14 13 14 13
8 4 5 4 11 16 14 19 15 16 18 24 23 20 27 22 24 14 14 20 18 9 6 5 5 7 8 9 11 13 13 16 12 10 12 12 12 14 17 16 14 15 14 14
6 12 17 20 19 6 6 10 11 17 18 24 22 26 24 31 27 26 19 22 21 13 11 9 5 9 10 9 11 11 11 13 11 12 13 15 17 18 17 14 14 15 15 16
10 22 28 29 30 29 27 27 25 27 29 30 29 28 23 29 32 27 18 19 10 10 9 9 8 10 10 10 11 10 13 15 12 13 14 18 15 14 13 14 15 14 15 14
6 13 18 25 25 28 29 28 32 36 36 34 34 33 28 31 29 31 27 22 18 18 17 15 14 15 12 12 12 11 12 11 13 16 18 15 14 15 15 14 14 14 14 14
9 8 11 18 15 20 22 28 33 35 33 29 31 32 27 26 26 27 19 13 12 17 20 14 10 12 16 15 15 16 15 10 13 15 13 13 13 14 14 14 15 16 16 14
21 22 15 22 21 31 22 11 20 27 32 31 23 18 17 16 19 16 16 15 16 18 17 17 16 18 20 14 9 10 4 9 12 12 11 12 14 14 13 13 13 13 12 14
20 19 11 14 21 25 24 9 9 8 6 15 14 13 15 26 16 12 15 15 14 15 13 12 9 11 15 14 12 9 5 6 8 11 12 12 12 12 13 14 14 12 12 12
6 11 16 16 21 22 11 16 20 15 11 25 20 20 19 18 15 13 23 21 22 19 13 15 14 13 14 14 9 5 5 2 2 3 2 7 10 12 13 14 14 12 12 12
5 6 10 12 14 9 13 13 16 8 12 21 15 15 16 13 12 20 21 15 13 16 21 18 15 14 14 12 7 5 3 2 1 4 6 6 6 9 10 11 9 11 12 12
7 6 4 6 6 14 28 16 7 11 11 11 9 12 14 17 21 19 20 19 16 17 18 15 15 16 15 11 7 7 4 3 4 6 6 6 7 7 9 12 10 11 12 12
5 5 4 6 8 18 14 6 13 4 5 8 12 18 12 16 16 18 18 18 18 19 17 16 16 19 15 8 6 11 6 4 4 3 5 10 9 8 10 12 12 10 10 10
5 6 4 4 6 15 14 13 7 8 8 11 7 10 12 15 16 17 16 19 18 17 17 17 17 18 19 11 7 10 4 4 3 4 6 7 12 13 11 8 10 11 11 11
8 3 7 10 18 18 12 11 4 8 4 8 11 12 14 13 17 16 17 18 17 16 14 16 15 16 20 18 16 10 6 8 8 8 8 8 8 10 11 11 12 12 13 16
13 17 12 16 18 13 16 11 8 3 7 10 12 14 15 13 17 16 17 16 16 18 16 18 20 18 19 19 19 16 6 10 11 10 8 9 8 8 9 9 7 17 16 24
Wind_Direction
195 134 214 225 210 231 193 223 233 252 251 198 233 238 248 268 255 243 253 257 254 243 250 239 210 203 198 194 187 186 180 181 171 173 174 185 197 191 187 183 185 176 178 173
95 217 232 251 200 222 239 253 260 267 263 210 260 256 246 252 265 259 240 249 252 253 255 248 210 187 190 192 191 186 187 179 184 183 184 184 179 181 190 186 187 183 179 175
215 223 227 223 232 238 230 235 250 257 299 233 279 269 240 245 253 265 260 250 256 256 254 250 203 199 195 196 189 188 187 184 185 179 161 96 92 75 158 195 189 188 181 178
229 240 223 204 226 223 263 231 255 263 292 272 74 296 194 233 242 252 257 258 250 249 249 257 208 198 195 202 192 190 185 182 184 174 174 181 190 191 201 194 171 171 183 183
246 191 183 213 232 182 256 198 233 203 214 344 207 268 190 203 245 247 257 251 258 249 244 239 211 204 207 188 188 186 181 181 180 180 182 186 195 197 141 146 158 178 185 186
240 215 195 222 215 194 135 70 23 55 98 266 206 210 119 176 212 239 256 259 252 256 258 239 205 194 192 178 178 179 181 183 176 179 184 192 197 172 157 169 179 185 186 188
285 217 220 161 236 160 149 94 301 327 4 242 174 205 255 257 229 214 238 258 262 260 258 220 200 183 169 180 182 179 178 184 180 183 191 196 195 186 188 182 185 179 184 192
229 289 181 182 202 194 202 183 180 202 246 262 110 243 268 220 237 249 247 261 259 266 261 218 206 190 181 191 184 182 184 185 187 189 196 195 197 193 196 191 189 192 195 194
207 266 155 185 169 150 174 199 233 349 83 9 269 276 294 254 266 288 281 285 273 268 255 243 215 191 183 183 193 188 184 191 192 195 196 198 197 197 197 191 190 190 185 178
277 276 193 40 2 272 174 153 38 248 179 233 250 288 272 271 287 298 312 291 283 279 257 232 222 207 197 184 182 188 194 198 191 188 196 201 202 201 196 182 188 183 176 164
197 197 263 72 206 215 228 245 215 202 192 248 259 253 267 283 282 284 295 296 314 308 279 261 241 224 215 158 175 191 199 192 199 195 195 199 197 193 192 189 187 180 168 172
178 166 244 257 256 223 253 245 231 237 246 233 252 247 261 267 272 267 277 275 273 285 297 292 283 251 207 201 197 199 199 199 209 206 193 199 188 185 192 191 185 173 175 176
183 208 245 209 288 261 230 246 229 245 259 253 254 250 258 270 274 245 244 268 274 274 276 250 261 265 237 223 217 216 211 219 213 194 189 190 188 187 197 195 184 174 171 173
190 223 236 255 267 273 241 220 231 234 253 254 251 263 267 271 265 268 264 269 277 293 312 306 258 228 225 228 229 220 220 212 200 193 193 197 197 197 198 188 179 176 174 170
236 248 250 252 256 250 254 261 257 256 254 251 250 252 255 264 270 270 272 274 294 293 279 274 273 273 261 244 237 241 223 210 192 197 201 208 203 195 187 180 180 177 178 177
305 279 282 262 246 248 244 245 256 262 259 260 258 253 254 253 265 277 272 282 286 278 269 258 248 249 246 244 246 232 230 217 192 199 208 201 189 185 184 179 177 173 174 171
265 275 283 273 289 278 257 245 258 259 263 257 256 255 262 269 267 276 294 303 346 7 347 316 283 263 265 264 252 246 232 208 195 207 204 191 181 181 180 174 173 178 176 165
254 261 259 273 283 262 275 246 249 258 264 272 297 329 342 340 316 334 42 38 22 1 346 345 347 335 319 301 279 260 204 192 196 200 192 182 179 178 172 170 178 172 163 165
222 245 264 258 255 273 276 24 347 338 38 8 337 334 1 343 312 62 27 12 350 333 320 317 309 325 319 307 308 289 220 192 175 189 189 181 174 166 163 172 171 163 157 160
319 258 263 271 270 271 35 348 332 302 230 8 351 356 348 354 341 324 328 321 322 326 327 321 321 323 333 323 319 327 328 343 261 35 114 146 158 162 170 168 165 163 162 158
322 315 267 277 278 260 22 11 335 277 334 321 323 345 353 337 320 314 315 316 322 327 328 328 329 324 317 317 323 335 350 348 53 112 120 128 142 154 159 153 157 151 151 150
274 312 331 347 324 253 360 358 356 289 319 325 345 340 331 316 312 310 305 313 315 319 323 322 322 320 319 310 318 307 289 308 158 137 126 133 140 142 145 146 144 149 151 150
272 206 239 204 235 290 311 256 309 344 333 318 318 318 317 313 314 311 311 318 322 320 317 316 311 308 307 303 280 290 282 160 163 167 171 154 149 147 156 153 154 156 160 163
257 249 216 340 251 268 282 291 250 324 324 325 330 316 311 308 310 315 317 314 311 307 310 308 307 303 299 305 267 257 238 166 178 231 190 184 169 161 167 174 168 164 174 173
223 297 239 263 277 276 268 280 7 315 299 315 312 308 302 313 301 305 303 300 298 300 310 307 308 306 309 309 293 268 224 178 204 208 201 193 185 184 178 179 181 184 194 182
236 249 255 261 275 289 284 303 346 299 314 310 298 298 299 301 293 297 288 291 297 299 306 308 303 306 294 297 305 306 222 196 205 209 198 191 183 195 176 177 181 209 201 195